EW3904 Weather Reports


Display with metric or nautical units.
time (UTC)temp
F
wind
direction
speed
MPH
gust
MPH
rain 1hr
in
rain 24hr
in
rain mn
in
humidity
%
barometer
mb
20260508233228 65 223 0.0 3.0 0.00 0.00 0.00 77 1014.2
20260508231228 66 250 2.0 5.0 0.00 0.00 0.00 75 1013.7
20260508230228 66 203 2.0 4.0 0.00 0.00 0.00 74 1013.5
20260508225228 66 173 1.0 4.0 0.00 0.00 0.00 74 1013.3
20260508224228 66 148 3.0 4.0 0.00 0.00 0.00 74 1013.2
20260508223228 67 226 2.0 4.0 0.00 0.00 0.00 72 1013.7
20260508222228 67 179 2.0 4.0 0.00 0.00 0.00 70 1013.7
20260508221228 67 197 0.0 4.0 0.00 0.00 0.00 70 1013.8
20260508215228 68 130 1.0 5.0 0.00 0.00 0.00 70 1013.4
20260508214228 68 140 0.0 5.0 0.00 0.00 0.00 69 1013.6
20260508213228 68 157 1.0 4.0 0.00 0.00 0.00 68 1013.8
20260508212228 69 157 1.0 4.0 0.00 0.00 0.00 66 1013.7
20260508211228 68 219 0.0 5.0 0.00 0.00 0.00 65 1013.9
20260508210228 68 179 3.0 4.0 0.00 0.00 0.00 64 1013.9
20260508205227 69 169 2.0 4.0 0.00 0.00 0.00 64 1014.0
20260508202227 69 182 2.0 5.0 0.00 0.00 0.00 63 1013.8
20260508201227 70 118 2.0 6.0 0.00 0.00 0.00 63 1014.1
20260508200227 70 188 4.0 4.0 0.00 0.00 0.00 62 1014.1
20260508195227 70 117 5.0 5.0 0.00 0.00 0.00 61 1014.2
20260508193227 70 92 1.0 4.0 0.00 0.00 0.00 57 1014.3
20260508192226 70 254 1.0 5.0 0.00 0.00 0.00 59 1014.6
20260508191226 70 257 1.0 7.0 0.00 0.00 0.00 59 1014.8
20260508190227 70 188 3.0 4.0 0.00 0.00 0.00 60 1014.7
20260508185227 69 136 2.0 4.0 0.00 0.00 0.00 61 1014.9
20260508184227 70 82 3.0 7.0 0.00 0.00 0.00 61 1014.8
20260508183227 69 119 2.0 7.0 0.00 0.00 0.00 64 1015.0
20260508182226 70 234 4.0 6.0 0.00 0.00 0.00 59 1015.2
20260508181226 69 146 2.0 8.0 0.00 0.00 0.00 61 1015.3
20260508180226 69 153 4.0 5.0 0.00 0.00 0.00 64 1015.4
20260508175226 70 176 2.0 7.0 0.00 0.00 0.00 62 1015.4
20260508174226 70 200 3.0 8.0 0.00 0.00 0.00 62 1015.7
20260508173226 69 123 1.0 4.0 0.00 0.00 0.00 63 1015.7
20260508172226 69 92 5.0 7.0 0.00 0.00 0.00 64 1015.9
20260508171226 68 200 1.0 4.0 0.00 0.00 0.00 67 1016.1
20260508170226 68 175 4.0 8.0 0.00 0.00 0.00 64 1016.2
20260508165226 69 147 2.0 5.0 0.00 0.00 0.00 62 1016.3
20260508163226 69 225 5.0 5.0 0.00 0.00 0.00 63 1017.0
20260508161226 67 143 4.0 9.0 0.00 0.00 0.00 66 1017.2
20260508160226 67 97 5.0 7.0 0.00 0.00 0.00 63 1017.0
20260508155226 67 79 3.0 5.0 0.00 0.00 0.00 70 1017.3
20260508154226 66 136 4.0 6.0 0.00 0.00 0.00 71 1017.4
20260508153225 66 110 3.0 10.0 0.00 0.00 0.00 70 1017.5
20260508152225 65 118 2.0 10.0 0.00 0.05 0.00 72 1017.5
20260508151225 65 88 6.0 9.0 0.00 0.17 0.00 74 1017.4
20260508150225 64 75 6.0 10.0 0.00 0.17 0.00 75 1017.3
20260508145224 65 176 6.0 8.0 0.00 0.17 0.00 74 1017.5
20260508144225 64 89 7.0 10.0 0.00 0.17 0.00 74 1017.5
20260508142225 63 66 8.0 10.0 0.00 0.18 0.00 72 1017.6
20260508141224 62 90 2.0 6.0 0.00 0.18 0.00 77 1017.4
20260508140225 62 82 3.0 8.0 0.00 0.18 0.00 76 1017.5
20260508135225 62 66 4.0 7.0 0.00 0.18 0.00 76 1017.6
20260508134225 62 95 8.0 8.0 0.00 0.18 0.00 78 1017.7
20260508133225 61 62 7.0 8.0 0.00 0.18 0.00 78 1017.4
20260508132224 60 60 4.0 7.0 0.00 0.20 0.00 78 1017.5
20260508131225 60 72 4.0 4.0 0.00 0.29 0.00 82 1017.3
20260508125224 59 37 2.0 2.0 0.00 0.52 0.00 81 1017.1
20260508124226 59 30 3.0 3.0 0.00 0.56 0.00 81 1017.1
20260508122224 58 19 3.0 4.0 0.00 0.68 0.00 83 1017.1
20260508121224 57 11 1.0 2.0 0.00 0.83 0.00 85 1016.7
20260508120224 57 339 1.0 2.0 0.00 1.20 0.00 85 1016.7
20260508115224 57 5 0.0 2.0 0.00 1.34 0.00 86 1016.8
20260508114224 56 341 0.0 2.0 0.00 1.73 0.00 86 1016.6
20260508112224 55 360 1.0 2.0 0.00 2.24 0.00 89 1016.0
20260508111223 55 355 2.0 3.0 0.00 2.24 0.00 90 1015.6
20260508110224 55 12 2.0 2.0 0.00 2.24 0.00 90 1015.6
20260508105224 55 344 0.0 0.0 0.00 2.24 0.00 90 1015.4
20260508103223 54 10 0.0 0.0 0.00 2.24 0.00 91 1015.1
20260508102223 54 41 0.0 0.0 0.00 2.24 0.00 92 1014.6
20260508101223 54 347 0.0 0.0 0.00 2.25 0.00 93 1014.7
20260508100223 54 355 0.0 0.0 0.00 2.25 0.00 93 1014.6
20260508092223 55 336 0.0 0.0 0.00 2.32 0.00 91 1014.5
20260508090223 56 350 0.0 0.0 0.00 2.39 0.00 91 1014.4
20260508085223 56 350 0.0 1.0 0.00 2.39 0.00 90 1014.2
20260508084223 56 302 1.0 2.0 0.00 2.39 0.00 90 1014.1
20260508083223 56 318 2.0 2.0 0.00 2.39 0.00 90 1014.0
20260508081223 56 331 0.0 2.0 0.00 2.40 0.00 91 1013.8
20260508080223 56 331 1.0 2.0 0.00 2.40 0.00 91 1013.6
20260508075223 56 310 0.0 3.0 0.00 2.40 0.00 91 1013.6
20260508074222 56 345 1.0 2.0 0.00 2.40 0.00 90 1013.6
20260508072222 57 319 0.0 2.0 0.00 2.40 0.00 89 1013.7
20260508070222 57 328 1.0 2.0 0.00 2.43 0.00 89 1014.1
20260508064222 58 313 0.0 0.0 0.00 2.47 0.00 89 1014.4
20260508063222 58 331 0.0 0.0 0.00 2.48 0.00 89 1014.3
20260508062222 58 325 0.0 0.0 0.00 2.49 0.00 89 1014.4
20260508061222 58 266 0.0 0.0 0.00 2.49 0.00 89 1014.2
20260508060222 59 306 0.0 1.0 0.00 2.50 0.00 88 1014.5
20260508055222 59 306 0.0 1.0 0.00 2.51 0.00 88 1014.7
20260508054222 59 300 2.0 2.0 0.00 2.53 0.00 87 1014.5
20260508053221 59 286 0.0 3.0 0.00 2.55 0.00 87 1014.5
20260508052222 59 287 1.0 3.0 0.00 2.59 0.00 87 1014.6
20260508051221 59 294 1.0 2.0 0.00 2.61 0.00 87 1014.4
20260508050221 60 319 1.0 3.0 0.00 2.63 0.00 87 1014.8
20260508045221 60 318 1.0 3.0 0.00 2.65 0.00 86 1014.7
20260508043221 61 300 2.0 3.0 0.00 2.67 0.00 85 1014.5
20260508042221 61 306 3.0 4.0 0.00 2.67 0.00 85 1014.5
20260508041221 61 326 2.0 4.0 0.00 2.67 0.00 85 1014.4
20260508040221 61 335 3.0 4.0 0.00 2.68 0.00 84 1014.4
20260508035221 62 296 2.0 4.0 0.00 2.68 2.68 83 1014.3
20260508034221 62 340 3.0 5.0 0.00 2.68 2.68 83 1014.3
20260508033221 62 325 3.0 6.0 0.00 2.68 2.68 82 1014.3
20260508032221 62 292 2.0 6.0 0.00 2.70 2.68 82 1014.1
20260508031221 62 323 4.0 4.0 0.00 2.72 2.68 82 1014.0
20260508030221 63 347 3.0 4.0 0.00 2.72 2.68 82 1013.9
20260508025221 63 306 3.0 5.0 0.00 2.72 2.68 82 1013.8
20260508024221 63 342 4.0 5.0 0.00 2.80 2.68 82 1013.6
20260508023220 63 295 2.0 4.0 0.00 2.80 2.68 81 1013.7
20260508022220 63 344 3.0 4.0 0.00 2.80 2.68 80 1013.7
20260508020220 64 334 3.0 4.0 0.00 2.80 2.68 79 1013.7
20260508015220 64 333 3.0 5.0 0.00 2.80 2.68 79 1013.6
20260508013222 65 330 4.0 5.0 0.00 2.80 2.68 78 1013.4
20260508011220 66 292 4.0 10.0 0.00 2.80 2.68 77 1013.3
20260508005220 67 304 4.0 8.0 0.00 2.80 2.68 79 1012.9
20260508004220 67 313 3.0 7.0 0.00 2.80 2.68 80 1012.9
20260508003220 67 300 6.0 8.0 0.00 2.80 2.68 80 1012.8
20260508002220 68 348 5.0 8.0 0.00 2.80 2.68 80 1012.7
20260508001220 68 337 1.0 4.0 0.00 2.80 2.68 79 1012.8
20260508000219 69 355 4.0 8.0 0.00 2.80 2.68 79 1012.4
20260507235219 70 340 3.0 4.0 0.00 2.80 2.68 78 1012.4
20260507234219 70 252 3.0 4.0 0.00 2.80 2.68 79 1012.5